User: anonymous   Login
Location: Young's Pond
(41.2695°N, 72.7766°W)
Time: 11:55:05
(UTC-05:00)
Language:

Spot 4 - Orbit

View from above orbital plane
View from above orbital plane
View from above satellite
View from above satellite

Ground track
Ground track

The orbit data is extracted from the following two-line orbital elements,

1 25260U 98017A   17057.22928396  .00000033  00000-0  18952-4 0  9996
2 25260  98.3565 139.9759 0011624 251.7797 108.2132 14.53461184985734
Epoch (UTC): 26 February 2017 05:30:10
Eccentricity: 0.0011624
inclination: 98.3565°
perigee height: 706 km
apogee height: 722 km
right ascension of ascending node: 139.9759°
argument of perigee: 251.7797°
revolutions per day: 14.53461184
mean anomaly at epoch: 108.2132°
orbit number at epoch: 98573

The dashed part of the orbit path shows where the satellite is in the earth's shadow,  

DLR